[[{"header":{"parameterUnit":"m.s-1","parameterCategory":1,"la1":30.2991,"la2":30.254,"lo1":-89.0895,"lo2":-89.0444,"dy":0.0017,"dx":0.0017,"nx":28,"ny":28,"refTime":"2024-04-25T09:00:00:Z","depth":0,"parameterNumber":2,"parameterNumberName":"U-component_of_WINDS"},"data":[0,0,0,0,0,0,0,0,0,0,0,0,0,0,0,0,0,0,0,0,0,0,0,0,0,0,0,0,0,0,0,0,0,0,0,0,0,0,0,0,0,0,0,0,0,0,0,0,0,0,0,0,0,0,0,0,0,0,-4.0549,-4.055,0,-4.0616,-4.0616,-4.0617,-4.0612,-4.0611,-4.061,-4.061,-4.0679,-4.0682,-4.0684,0,0,0,0,0,0,0,0,0,0,0,0,0,-4.042,-4.0422,-4.0549,-4.055,-4.0551,-4.0615,-4.0616,-4.0617,-4.0613,-4.0611,-4.061,-4.0609,-4.0678,-4.0681,-4.0685,0,0,0,0,0,0,0,0,0,0,0,0,0,-4.048,-4.0423,-4.0549,-4.0556,-4.0557,-4.0615,-4.0616,-4.0617,-4.0613,-4.0611,-4.061,-4.0608,-4.0677,-4.0681,-4.0685,-4.074,0,0,-4.0698,-4.07,0,0,0,0,0,0,0,0,-4.0477,-4.0485,-4.0554,-4.0556,-4.0557,-4.0604,-4.0596,-4.0659,-4.0613,-4.0592,-4.0609,-4.0608,-4.0655,-4.0661,-4.0677,-4.0744,-4.0747,-4.0698,-4.0701,-4.0702,-4.0704,0,0,0,0,0,0,0,-4.0473,-4.0482,-4.0575,-4.0555,-4.0557,-4.0557,-4.0564,-4.0608,-4.0631,-4.0594,-4.0593,-4.0601,-4.0656,-4.0673,-4.0678,-4.0748,-4.0698,-4.0702,-4.0704,-4.0706,-4.0864,-4.0865,0,0,0,0,0,0,-4.0467,-4.0479,-4.0573,-4.0577,-4.0513,-4.056,-4.0568,-4.0591,-4.0631,-4.0635,-4.0602,-4.0601,-4.0667,-4.0674,-4.0681,-4.0748,-4.0702,-4.0706,-4.0709,-4.0862,-4.0864,-4.0866,0,0,0,0,0,0,-4.0464,-4.0475,-4.057,-4.0528,-4.054,-4.0564,-4.0589,-4.0593,-4.061,-4.0637,-4.0642,-4.0615,-4.0666,-4.0675,-4.0726,-4.075,-4.0708,-4.0712,-4.086,-4.0863,-4.0865,-4.0882,0,0,0,0,0,0,-4.046,-4.0474,-4.0495,-4.0528,-4.0542,-4.0613,-4.0591,-4.0595,-4.0617,-4.0615,-4.0651,-4.0655,-4.0665,-4.0719,-4.073,-4.0755,-4.0715,-4.0858,-4.0861,-4.0864,-4.0879,-4.0885,-4.089,0,0,0,0,0,-4.0456,-4.0497,-4.0496,-4.0507,-4.0568,-4.0615,-4.0623,-4.0633,-4.0619,-4.064,-4.0658,-4.0654,-4.0747,-4.0725,-4.0736,-4.0763,-4.0856,-4.086,-4.0864,-4.0877,-4.0884,-4.089,0,0,0,0,0,0,-4.0465,-4.0501,-4.05,-4.0554,-4.0581,-4.0614,-4.064,-4.064,-4.0672,-4.0669,-4.0682,-4.069,-4.074,-4.0757,-4.0732,-4.0819,-4.08,-4.0806,-4.0806,-4.0812,-4.0817,-4.0811,-4.0719,0,0,0,0,0,-4.0474,-4.0508,-4.0538,-4.0582,-4.0596,-4.0616,-4.0637,-4.0642,-4.0671,-4.0683,-4.0705,-4.0734,-4.0769,-4.0792,-4.0826,-4.0883,-4.0891,-4.0908,-4.0913,-4.0917,-4.0921,-4.0953,-4.096,-4.0879,-4.0879,-4.0878,0,0,-4.0491,-4.0515,-4.0536,-4.0585,-4.0606,-4.0642,-4.0626,-4.0664,-4.069,-4.0689,-4.0737,-4.0755,-4.0788,-4.0842,-4.0866,-4.0857,-4.0946,-4.0922,-4.0925,-4.0927,-4.0957,-4.0965,-4.0972,-4.0881,-4.0881,-4.088,0,0,-4.054,-4.0562,-4.0601,-4.0624,-4.0657,-4.0671,-4.068,-4.0714,-4.0725,-4.0774,-4.0774,-4.0807,-4.0868,-4.0891,-4.0911,-4.0972,-4.097,-4.0984,-4.1009,-4.1039,-4.1046,-4.1051,-4.1072,-4.108,-4.0989,-4.0989,-4.0989,0,-4.0557,-4.061,-4.0622,-4.066,-4.0681,-4.0683,-4.0723,-4.0745,-4.0788,-4.0803,-4.0793,-4.087,-4.0892,-4.0951,-4.0966,-4.0983,-4.0994,-4.0978,-4.1044,-4.105,-4.1055,-4.1075,-4.1083,-4.099,-4.099,-4.099,-4.0989,0,-4.0629,-4.0666,-4.0694,-4.0735,-4.076,-4.0799,-4.0817,-4.0842,-4.0847,-4.0862,-4.0912,-4.094,-4.0979,-4.0995,-4.1,-4.1055,-4.1048,-4.1041,-4.1021,-4.1064,-4.1083,-4.1091,-4.0992,-4.0991,-4.0991,-4.0991,0,0,-4.0683,-4.0732,-4.0742,-4.076,-4.0799,-4.0828,-4.0868,-4.0907,-4.0927,-4.0958,-4.0991,-4.1044,-4.1038,-4.1061,-4.1069,-4.1096,-4.1142,-4.1085,-4.1086,-4.1093,-4.1204,-4.1207,-4.1216,-4.1142,-4.1143,-4.1144,-4.12,0,-4.0735,-4.0804,-4.0817,-4.0878,-4.0912,-4.0915,-4.095,-4.0978,-4.0994,-4.1026,-4.1044,-4.108,-4.107,-4.1084,-4.1111,-4.113,-4.1163,-4.1127,-4.1172,-4.1174,-4.1161,-4.1226,-4.123,-4.1281,-4.1208,-4.1209,-4.121,0,-4.0804,-4.0836,-4.09,-4.0934,-4.0949,-4.098,-4.1017,-4.1048,-4.108,-4.109,-4.1116,-4.1122,-4.1164,-4.1145,-4.1203,-4.1178,-4.1198,-4.1211,-4.1213,-4.1216,-4.1193,-4.1228,-4.1298,-4.1305,-4.1222,-4.1221,-4.122,0,-4.0835,-4.0895,-4.094,-4.0957,-4.0998,-4.102,-4.1038,-4.1069,-4.1092,-4.1126,-4.1141,-4.1179,-4.1199,-4.1229,-4.1245,-4.123,-4.1303,-4.1285,-4.1312,-4.1311,-4.1324,-4.1323,-4.1396,-4.1341,-4.1341,-4.1341,-4.1341,0,-4.089,-4.0929,-4.0955,-4.0983,-4.1027,-4.1042,-4.1085,-4.1104,-4.1132,-4.1164,-4.117,-4.1201,-4.1221,-4.1255,-4.1268,-4.1315,-4.1324,-4.1333,-4.1336,-4.1331,-4.133,-4.1343,-4.1339,-4.1343,-4.1343,-4.1342,-4.1342,0,-4.0931,-4.095,-4.1,-4.1036,-4.1046,-4.1077,-4.1107,-4.1135,-4.1152,-4.1193,-4.1204,-4.123,-4.127,-4.129,-4.134,-4.1349,-4.1401,-4.1403,-4.139,-4.139,-4.1416,-4.1412,-4.1498,-4.1509,-4.1449,-4.1449,-4.145,0,-4.0963,-4.0993,-4.1032,-4.1054,-4.1073,-4.1108,-4.1132,-4.1149,-4.1174,-4.1213,-4.1237,-4.1277,-4.131,-4.1374,-4.1398,-4.1437,-4.1438,-4.1465,-4.1444,-4.1438,-4.1437,-4.1434,-4.1436,-4.1468,-4.1469,-4.1469,-4.147,0,-4.1019,-4.1027,-4.1061,-4.1098,-4.1125,-4.1156,-4.1185,-4.1203,-4.1226,-4.1253,-4.1294,-4.1319,-4.1371,-4.1411,-4.1451,-4.1471,-4.1474,-4.1477,-4.1485,-4.1479,-4.147,-4.1474,-4.1398,-4.1474,-4.1474,-4.1473,-4.1473,-4.1473,-4.1056,-4.1082,-4.1114,-4.1151,-4.1176,-4.1203,-4.1231,-4.1252,-4.1286,-4.1328,-4.1338,-4.1381,-4.1414,-4.1469,-4.149,-4.1525,-4.1519,-4.1531,-4.1534,-4.1536,-4.1536,-4.1466,-4.1533,-4.1533,-4.1533,-4.1533,-4.1532,0,-4.111,-4.1131,-4.1165,-4.1207,-4.1236,-4.1237,-4.1271,-4.1295,-4.1333,-4.1363,-4.1396,-4.1443,-4.1482,-4.1511,-4.1551,-4.1573,-4.1576,-4.1583,-4.158,-4.1585,-4.154,-4.1528,-4.158,-4.158,-4.158,-4.158,-4.158,-4.158,-4.1142,-4.1187,-4.1199,-4.1257,-4.1278,-4.1319,-4.1338,-4.1365,-4.1389,-4.1441,-4.1474,-4.1492,-4.1522,-4.1564,-4.1601,-4.1608,-4.1622,-4.1629,-4.1636,-4.1593,-4.1588,-4.1583,-4.1572,-4.1633,-4.1633,-4.1678,-4.1679,-4.1679]},{"header":{"parameterUnit":"m.s-1","parameterCategory":1,"la1":30.2991,"la2":30.254,"lo1":-89.0895,"lo2":-89.0444,"dy":0.0017,"dx":0.0017,"nx":28,"ny":28,"refTime":"2024-04-25T09:00:00:Z","depth":0,"parameterNumber":3,"parameterNumberName":"V-component_of_WINDS"},"data":[0,0,0,0,0,0,0,0,0,0,0,0,0,0,0,0,0,0,0,0,0,0,0,0,0,0,0,0,0,0,0,0,0,0,0,0,0,0,0,0,0,0,0,0,0,0,0,0,0,0,0,0,0,0,0,0,0,0,4.7817,4.7817,0,4.7874,4.7875,4.7875,4.786,4.7859,4.7857,4.7856,4.7913,4.7915,4.7918,0,0,0,0,0,0,0,0,0,0,0,0,0,4.769,4.7693,4.7816,4.7817,4.7818,4.7874,4.7875,4.7876,4.786,4.7859,4.7857,4.7856,4.7912,4.7915,4.7918,0,0,0,0,0,0,0,0,0,0,0,0,0,4.7746,4.7694,4.7816,4.7817,4.7818,4.7874,4.7875,4.7876,4.786,4.7859,4.7857,4.7855,4.7911,4.7915,4.7919,4.7977,0,0,4.793,4.7932,0,0,0,0,0,0,0,0,4.7743,4.7751,4.7816,4.7817,4.7818,4.7858,4.7851,4.791,4.7861,4.7844,4.7856,4.7854,4.7896,4.7901,4.7915,4.798,4.7982,4.7931,4.7933,4.7935,4.7936,0,0,0,0,0,0,0,4.7739,4.7748,4.7839,4.7817,4.7818,4.7813,4.782,4.7862,4.7879,4.7845,4.7844,4.7851,4.7896,4.7912,4.7917,4.7983,4.7931,4.7934,4.7936,4.7938,4.8098,4.81,0,0,0,0,0,0,4.7735,4.7745,4.7837,4.7841,4.7776,4.7817,4.7824,4.7847,4.7878,4.7882,4.7853,4.7851,4.7906,4.7912,4.7918,4.799,4.7935,4.7938,4.794,4.8096,4.8099,4.8101,0,0,0,0,0,0,4.7732,4.7743,4.7835,4.7793,4.7804,4.7821,4.7847,4.7849,4.7865,4.7884,4.7887,4.7866,4.7905,4.7913,4.7963,4.7991,4.794,4.7944,4.8094,4.8097,4.81,4.8132,0,0,0,0,0,0,4.7729,4.7743,4.7766,4.7794,4.7806,4.7879,4.7849,4.7851,4.7872,4.7869,4.7897,4.79,4.7904,4.7957,4.7967,4.7996,4.7947,4.8092,4.8095,4.8099,4.8128,4.8136,4.8142,0,0,0,0,0,4.7724,4.7772,4.7767,4.7778,4.7836,4.7881,4.7888,4.7893,4.7874,4.7897,4.7909,4.7899,4.7986,4.7962,4.7973,4.8004,4.809,4.8094,4.8098,4.8125,4.8134,4.8142,0,0,0,0,0,0,4.7746,4.7775,4.777,4.7828,4.7852,4.7878,4.7907,4.7902,4.7931,4.7927,4.793,4.7937,4.7988,4.8,4.7973,4.8062,4.8035,4.8042,4.8052,4.8061,4.8067,4.8063,4.795,0,0,0,0,0,4.7757,4.7793,4.7816,4.7865,4.7877,4.789,4.791,4.7911,4.7936,4.7946,4.7962,4.7986,4.8019,4.804,4.8071,4.813,4.8136,4.8156,4.8163,4.8168,4.8174,4.8206,4.8216,4.8115,4.8115,4.8115,0,0,4.7781,4.7802,4.7824,4.787,4.7888,4.7924,4.7899,4.7938,4.7964,4.7952,4.8,4.8013,4.8039,4.8094,4.8119,4.8106,4.8203,4.8174,4.8178,4.8181,4.8212,4.8221,4.823,4.8118,4.8117,4.8117,0,0,4.7844,4.7863,4.7906,4.7925,4.7955,4.7963,4.7973,4.8,4.8009,4.8057,4.8049,4.808,4.8136,4.8156,4.8173,4.8243,4.8234,4.8252,4.8287,4.8319,4.8327,4.8334,4.8359,4.8368,4.8258,4.8258,4.8258,0,4.787,4.7924,4.7928,4.7969,4.7989,4.798,4.8023,4.8042,4.8079,4.8093,4.8078,4.8149,4.8166,4.8226,4.8243,4.8257,4.8268,4.825,4.8325,4.8333,4.8339,4.8364,4.8373,4.826,4.826,4.826,4.826,0,4.7955,4.7993,4.8024,4.8062,4.8086,4.8127,4.8137,4.816,4.8159,4.8169,4.8219,4.8239,4.8274,4.8288,4.8287,4.8347,4.8339,4.8325,4.8298,4.8351,4.8374,4.8383,4.8263,4.8262,4.8262,4.8261,0,0,4.8034,4.8073,4.8085,4.8102,4.8133,4.8162,4.8203,4.8238,4.8259,4.8284,4.8319,4.8366,4.8354,4.8373,4.8374,4.8402,4.8456,4.8384,4.8385,4.8398,4.8525,4.8536,4.8546,4.8451,4.8453,4.8454,4.8523,0,4.81,4.8173,4.8177,4.8243,4.8278,4.827,4.8305,4.8328,4.8338,4.8368,4.8379,4.8413,4.8393,4.8405,4.8432,4.8444,4.8482,4.8439,4.8482,4.8484,4.8477,4.8558,4.857,4.8634,4.8532,4.8533,4.8534,0,4.8187,4.8217,4.8286,4.8313,4.8328,4.836,4.8393,4.8422,4.8447,4.8452,4.8475,4.8472,4.8513,4.8484,4.854,4.8511,4.8529,4.8537,4.854,4.8545,4.8513,4.8566,4.8655,4.8665,4.8548,4.8547,4.8546,0,4.8238,4.8295,4.8345,4.8359,4.8392,4.8414,4.8429,4.8452,4.8473,4.8502,4.8515,4.8547,4.8565,4.859,4.8596,4.8574,4.8652,4.8624,4.8658,4.8658,4.8675,4.8674,4.8769,4.8685,4.8685,4.8685,4.8685,0,4.8312,4.8355,4.8368,4.8399,4.8446,4.8451,4.8498,4.851,4.8531,4.8564,4.8557,4.8587,4.8593,4.8624,4.8628,4.8674,4.8682,4.8687,4.8688,4.8689,4.8688,4.8701,4.8697,4.8687,4.8687,4.8686,4.8686,0,4.8378,4.8388,4.8442,4.8468,4.8476,4.851,4.8532,4.8561,4.857,4.861,4.862,4.8634,4.867,4.8678,4.8721,4.8723,4.8779,4.8775,4.8771,4.8771,4.8804,4.8802,4.8911,4.8926,4.8832,4.8833,4.8834,0,4.8425,4.8458,4.8488,4.851,4.8526,4.856,4.8582,4.8587,4.861,4.8641,4.8666,4.8702,4.8731,4.8789,4.8802,4.8835,4.8832,4.8868,4.8837,4.8836,4.8833,4.8832,4.8835,4.8874,4.8875,4.8876,4.8877,0,4.8508,4.8511,4.8544,4.8578,4.8604,4.8631,4.8656,4.8674,4.8682,4.8708,4.8746,4.8768,4.8812,4.8847,4.888,4.8893,4.8887,4.8886,4.8896,4.8897,4.8894,4.8897,4.8788,4.8884,4.8883,4.8883,4.8882,4.8882,4.8567,4.8596,4.8622,4.8658,4.8678,4.8702,4.873,4.8743,4.8775,4.8812,4.8812,4.8853,4.8877,4.892,4.8936,4.8967,4.8956,4.897,4.8973,4.8977,4.8981,4.8888,4.8973,4.8973,4.8973,4.8972,4.8972,0,4.865,4.8666,4.8699,4.8736,4.8764,4.8755,4.8783,4.8807,4.8843,4.8867,4.8895,4.8938,4.8973,4.8989,4.9022,4.9044,4.9042,4.9053,4.9052,4.9055,4.8988,4.8977,4.9055,4.9055,4.9055,4.9055,4.9055,4.9054,4.8697,4.8746,4.8753,4.8812,4.8827,4.8868,4.8885,4.8907,4.8925,4.8974,4.9003,4.9013,4.9033,4.9068,4.9099,4.9103,4.9116,4.9129,4.9131,4.9068,4.906,4.9052,4.9042,4.9131,4.9131,4.9196,4.9196,4.9197]}]]